Temp
25 25 23 23 22 22 22 21 21 21 21 20 20 20 20 20 20 20 20 21 21 21 20 20 20 20 21 22 22 23 25 23 21 18 19 19 20 19 18 18 18 18 17
24 23 22 22 21 22 21 21 20 20 20 20 20 20 20 20 21 21 21 21 21 21 21 21 21 21 21 22 22 21 21 24 22 19 18 19 19 19 18 18 18 18 18
23 23 22 21 20 21 21 21 20 20 20 20 20 20 21 20 20 20 21 20 20 20 21 21 21 20 21 22 22 20 19 23 22 19 19 19 19 18 18 18 18 18 18
22 21 20 19 19 19 21 21 20 20 19 18 18 18 18 20 19 19 19 20 21 21 20 21 21 21 21 21 21 20 20 21 21 20 19 18 19 18 18 17 17 18 18
19 18 18 18 18 18 18 19 20 18 17 16 17 17 18 19 19 19 19 20 20 20 20 21 21 21 20 19 19 21 21 21 21 21 20 19 18 18 18 17 17 17 18
19 18 19 20 19 19 18 18 19 17 18 16 16 17 17 17 17 18 19 19 18 19 19 20 20 21 21 20 19 20 20 20 20 19 17 17 18 16 17 18 17 17 16
19 19 18 18 21 20 17 18 19 17 18 16 15 16 17 17 17 18 18 18 18 18 18 19 20 20 20 21 21 21 20 19 19 18 18 18 17 17 16 16 17 17 17
16 16 17 18 16 16 16 17 17 14 16 16 15 15 15 16 16 16 16 17 18 17 18 18 18 18 18 19 19 20 19 18 18 16 16 17 17 17 17 16 17 15 16
15 16 16 18 15 14 15 16 16 17 18 18 17 17 16 16 15 15 16 16 15 15 16 15 15 16 16 16 17 17 17 17 17 17 16 16 16 17 17 17 17 15 15
14 14 15 15 15 15 16 16 16 16 17 17 17 16 16 15 14 14 14 14 15 15 15 14 14 14 14 14 15 15 16 17 16 16 16 16 17 17 17 16 15 15 15
15 15 14 14 14 15 15 15 15 14 14 14 14 13 13 13 13 13 13 13 13 14 14 14 15 14 14 14 14 14 14 14 15 15 15 15 15 15 15 15 15 15 15
15 14 14 14 14 14 14 14 13 14 14 13 13 12 12 12 12 11 11 11 11 11 11 11 12 12 13 13 13 13 13 13 14 13 13 13 14 14 14 15 15 15 14
14 14 14 15 15 15 14 15 14 14 14 13 12 11 10 11 11 11 10 10 10 10 10 11 11 11 12 12 12 12 12 13 13 12 12 13 13 13 14 15 15 15 16
13 13 13 13 13 14 14 13 13 12 11 9 9 9 9 9 9 8 9 10 10 9 9 10 10 11 11 11 12 11 11 12 12 12 12 12 12 12 13 13 13 13 15
12 12 11 11 11 11 11 11 11 10 10 8 8 8 8 8 8 9 9 9 9 9 9 9 9 9 10 10 10 10 10 11 11 11 11 12 12 12 12 13 13 13 13
11 11 10 10 10 10 9 8 9 9 9 9 9 9 8 9 9 9 9 8 8 9 9 9 9 8 9 9 9 9 10 10 10 10 11 11 11 12 12 13 12 13 12
10 9 9 9 9 8 7 7 7 7 8 8 8 8 8 9 8 8 9 9 9 9 8 8 7 7 8 8 8 8 8 9 9 9 10 10 11 11 12 12 12 12 12
9 9 9 8 8 7 7 7 7 8 8 8 8 8 8 8 8 8 8 8 7 7 6 7 6 6 6 7 7 8 8 8 8 9 9 9 10 10 11 12 12 13 12
9 9 8 8 8 8 8 7 7 7 7 7 8 8 7 7 8 7 7 6 6 7 7 5 5 5 5 6 6 7 7 7 7 7 8 9 9 10 10 11 11 12 12
10 9 9 9 9 8 8 8 8 8 8 8 8 8 7 7 7 7 6 6 5 5 5 5 6 6 5 5 6 7 7 7 8 8 8 9 9 9 10 10 11 11 12
10 10 10 10 9 8 9 8 8 8 8 8 7 7 7 7 5 6 6 6 5 5 5 5 5 5 5 5 5 6 6 7 7 8 8 8 8 10 9 10 10 11 11
11 10 10 10 10 10 9 9 9 9 8 8 7 7 6 6 6 5 5 4 5 5 5 5 5 5 5 5 5 6 6 6 7 7 8 8 8 8 9 9 10 11 11
11 11 10 10 10 10 9 9 9 9 9 8 7 7 6 6 5 4 4 4 4 4 5 5 4 4 5 5 5 5 6 6 7 7 7 8 8 8 8 9 10 10 10
10 9 9 10 10 10 9 9 9 9 9 8 7 6 6 5 4 4 4 4 4 5 4 4 4 4 5 5 5 5 5 6 6 6 7 7 7 8 8 8 8 9 9
9 8 9 9 9 9 9 9 9 9 8 7 6 6 5 4 5 4 4 3 4 4 4 4 4 4 4 5 5 5 5 5 5 6 6 6 7 7 7 8 8 8 9
8 8 7 8 9 9 9 9 9 8 7 6 6 5 5 5 5 4 4 3 3 4 4 4 4 4 4 4 4 4 4 5 5 5 5 6 6 7 7 7 7 8 8
Height
1524 1527 1532 1536 1539 1542 1544 1546 1547 1549 1551 1553 1553 1554 1553 1554 1555 1554 1554 1556 1556 1557 1556 1555 1552 1552 1552 1551 1550 1548 1537 1538 1541 1543 1542 1542 1541 1541 1540 1538 1536 1534 1534
1519 1522 1528 1532 1535 1537 1537 1540 1543 1544 1547 1549 1550 1549 1550 1550 1551 1550 1551 1550 1550 1550 1551 1550 1549 1548 1546 1545 1544 1541 1536 1528 1532 1535 1537 1536 1536 1537 1536 1534 1533 1532 1530
1516 1519 1522 1526 1530 1531 1534 1537 1538 1539 1541 1543 1545 1545 1544 1544 1544 1544 1546 1547 1546 1547 1546 1544 1543 1542 1540 1540 1538 1533 1533 1524 1525 1528 1530 1531 1531 1531 1529 1528 1527 1525 1524
1508 1512 1517 1521 1526 1527 1529 1532 1534 1534 1536 1538 1539 1540 1543 1540 1540 1543 1545 1542 1542 1542 1540 1540 1538 1537 1535 1533 1531 1529 1528 1521 1521 1522 1525 1526 1526 1525 1524 1522 1521 1518 1518
1504 1511 1516 1520 1523 1529 1534 1531 1530 1529 1533 1537 1538 1539 1540 1540 1536 1540 1539 1539 1539 1538 1536 1535 1534 1532 1530 1529 1527 1524 1521 1519 1518 1519 1519 1519 1519 1517 1518 1518 1514 1514 1511
1498 1505 1509 1511 1516 1524 1532 1531 1531 1530 1526 1531 1535 1538 1539 1535 1537 1536 1535 1535 1535 1535 1533 1531 1530 1528 1526 1524 1523 1521 1519 1517 1515 1513 1514 1512 1510 1510 1510 1511 1508 1507 1505
1491 1496 1506 1504 1501 1513 1520 1516 1513 1524 1524 1519 1529 1535 1533 1531 1531 1532 1530 1531 1530 1529 1527 1524 1523 1522 1520 1516 1514 1513 1512 1512 1511 1510 1507 1505 1504 1503 1503 1501 1501 1501 1499
1503 1501 1498 1494 1516 1521 1513 1516 1516 1520 1520 1522 1524 1526 1526 1523 1524 1525 1525 1525 1523 1522 1520 1518 1517 1516 1513 1509 1508 1505 1505 1504 1502 1502 1500 1499 1498 1498 1495 1495 1495 1494 1492
1505 1504 1504 1493 1519 1524 1514 1513 1517 1522 1519 1518 1520 1519 1518 1520 1520 1520 1520 1519 1519 1517 1514 1513 1512 1511 1509 1505 1502 1500 1498 1499 1498 1495 1495 1495 1493 1492 1490 1488 1487 1486 1485
1505 1507 1503 1510 1513 1515 1515 1515 1518 1519 1516 1515 1515 1514 1514 1516 1517 1517 1515 1515 1513 1511 1509 1508 1507 1506 1505 1502 1497 1495 1493 1495 1491 1488 1487 1486 1487 1485 1483 1480 1479 1478 1479
1508 1508 1509 1510 1514 1513 1512 1512 1513 1514 1514 1511 1513 1513 1513 1513 1513 1512 1510 1510 1508 1507 1503 1502 1500 1498 1499 1495 1493 1490 1490 1489 1486 1482 1481 1479 1480 1481 1478 1475 1474 1474 1471
1508 1509 1510 1512 1509 1509 1508 1509 1511 1509 1508 1508 1508 1509 1508 1507 1507 1507 1506 1505 1503 1500 1499 1496 1494 1493 1489 1487 1486 1485 1486 1484 1478 1479 1475 1476 1474 1476 1474 1471 1469 1469 1467
1507 1509 1509 1507 1506 1506 1507 1506 1507 1505 1505 1504 1503 1502 1501 1501 1501 1499 1499 1499 1497 1495 1492 1492 1489 1485 1483 1480 1480 1479 1478 1475 1473 1470 1468 1468 1466 1469 1466 1464 1465 1464 1461
1505 1507 1506 1506 1506 1506 1505 1503 1501 1500 1499 1500 1498 1499 1498 1496 1496 1495 1493 1492 1490 1489 1485 1484 1482 1479 1478 1477 1475 1474 1473 1470 1467 1463 1463 1459 1459 1460 1458 1460 1459 1459 1455
1502 1504 1504 1504 1505 1504 1504 1503 1500 1499 1499 1497 1497 1495 1494 1496 1495 1491 1489 1487 1485 1483 1478 1477 1476 1475 1475 1472 1471 1468 1465 1463 1460 1459 1455 1452 1453 1452 1450 1452 1453 1452 1448
1504 1504 1504 1504 1503 1502 1501 1500 1498 1496 1496 1494 1492 1492 1492 1491 1490 1488 1486 1482 1481 1477 1472 1470 1470 1471 1468 1466 1464 1460 1459 1456 1454 1452 1449 1447 1447 1446 1445 1446 1446 1444 1442
1505 1506 1505 1504 1503 1502 1502 1501 1499 1498 1496 1494 1493 1493 1491 1489 1487 1485 1484 1480 1476 1472 1469 1468 1465 1462 1460 1459 1456 1452 1449 1449 1446 1444 1441 1441 1440 1440 1439 1438 1439 1436 1433
1505 1504 1504 1504 1503 1502 1501 1500 1499 1497 1496 1495 1493 1491 1488 1487 1485 1481 1478 1472 1470 1466 1464 1462 1457 1454 1451 1447 1445 1443 1438 1437 1434 1433 1433 1432 1433 1432 1431 1431 1431 1429 1427
1503 1504 1503 1502 1501 1500 1498 1496 1495 1494 1493 1491 1489 1487 1483 1480 1479 1475 1470 1466 1463 1461 1459 1454 1451 1445 1441 1439 1437 1433 1431 1429 1428 1424 1422 1423 1424 1423 1423 1422 1422 1421 1420
1502 1501 1500 1499 1499 1497 1497 1495 1493 1491 1488 1485 1483 1481 1478 1474 1470 1467 1464 1460 1455 1452 1449 1445 1441 1437 1434 1431 1427 1424 1424 1420 1419 1417 1415 1415 1415 1415 1415 1414 1414 1413 1413
1498 1497 1496 1495 1493 1492 1491 1488 1486 1483 1480 1479 1475 1472 1467 1463 1461 1458 1456 1452 1447 1443 1440 1436 1433 1428 1425 1421 1419 1415 1415 1414 1412 1409 1408 1408 1408 1407 1407 1406 1406 1406 1405
1493 1492 1491 1489 1487 1485 1483 1481 1479 1476 1473 1470 1466 1463 1460 1457 1455 1450 1446 1442 1439 1435 1432 1428 1423 1418 1414 1413 1410 1407 1406 1405 1404 1402 1401 1401 1400 1399 1398 1398 1397 1396 1396
1489 1486 1485 1483 1481 1480 1478 1476 1473 1470 1466 1463 1459 1457 1454 1451 1447 1442 1438 1434 1431 1428 1424 1420 1414 1409 1406 1404 1402 1400 1398 1397 1396 1394 1393 1392 1391 1391 1391 1389 1389 1388 1388
1481 1478 1476 1475 1474 1473 1472 1469 1467 1464 1460 1458 1456 1452 1449 1446 1442 1436 1431 1428 1425 1421 1417 1413 1408 1404 1401 1399 1397 1395 1393 1391 1389 1387 1384 1383 1381 1382 1381 1381 1381 1381 1381
1474 1472 1469 1468 1467 1466 1467 1465 1462 1460 1457 1455 1452 1449 1447 1442 1435 1430 1426 1422 1419 1415 1412 1408 1403 1400 1398 1395 1393 1391 1389 1387 1384 1381 1378 1375 1373 1372 1371 1371 1372 1372 1373
1470 1467 1465 1464 1463 1462 1461 1460 1459 1457 1455 1452 1450 1447 1442 1436 1430 1426 1422 1418 1415 1411 1408 1405 1402 1398 1395 1392 1389 1387 1384 1381 1378 1375 1372 1368 1366 1364 1363 1363 1362 1363 1363
Wind_Speed
25 23 24 21 20 20 20 20 19 18 18 16 14 13 14 14 12 13 13 16 21 22 21 21 18 17 20 24 27 25 22 17 18 16 21 22 20 21 21 17 17 18 17
29 26 21 20 20 20 22 22 20 18 16 18 18 14 15 15 16 20 21 20 20 19 17 18 21 19 19 23 28 34 31 29 18 18 17 23 22 23 24 22 19 19 20
25 23 18 16 17 18 19 17 16 14 14 15 16 18 18 17 19 17 16 13 11 15 20 24 26 21 23 28 35 24 15 16 16 16 18 23 25 26 28 27 23 21 18
23 20 15 12 12 13 15 18 18 15 10 8 9 10 9 13 12 11 12 14 18 21 19 19 20 21 23 24 24 20 16 16 18 21 23 26 29 29 31 30 27 22 20
20 22 30 30 22 17 10 13 18 12 4 6 6 6 6 9 10 13 14 16 20 22 22 22 21 21 22 24 27 26 25 24 23 23 25 27 27 32 32 29 27 22 24
28 28 23 19 7 15 20 10 15 18 17 6 8 12 13 12 15 17 19 21 22 22 22 22 23 23 25 26 25 24 26 28 29 26 22 25 27 27 29 26 24 23 22
32 28 16 6 12 19 20 12 25 24 20 13 16 13 14 14 16 19 20 21 22 24 25 24 26 26 27 28 30 31 31 30 31 31 32 30 28 26 22 25 25 25 23
16 13 9 8 14 18 14 15 21 12 13 16 19 17 15 15 17 18 18 19 21 22 23 24 25 25 23 26 29 30 31 30 27 22 22 24 22 24 25 24 27 27 26
17 16 16 19 6 10 14 15 18 25 21 18 18 18 17 15 16 17 18 18 19 19 20 20 21 22 22 23 26 28 29 28 24 25 25 25 25 26 29 31 32 28 29
17 14 14 11 10 6 4 5 9 11 12 15 17 17 17 16 17 18 19 20 22 23 24 24 23 24 25 23 23 23 25 27 26 26 26 27 26 26 25 27 26 28 30
11 9 8 7 3 2 1 4 7 9 10 10 13 14 15 17 18 18 19 20 22 24 24 26 26 28 28 26 25 24 23 23 23 24 25 23 18 15 15 17 18 23 24
6 4 2 1 3 5 6 9 11 12 14 15 16 16 16 17 18 16 16 17 19 20 21 20 22 22 21 25 29 26 26 27 24 24 20 19 17 16 13 15 16 18 22
3 2 5 7 9 10 12 12 15 15 16 15 14 14 13 14 15 15 16 18 18 19 20 22 23 23 22 21 21 23 26 26 27 23 22 23 20 20 25 24 23 21 20
3 6 8 8 8 10 11 12 13 14 13 11 10 11 12 14 13 13 13 15 15 16 19 21 22 23 23 24 24 20 23 26 22 20 22 21 20 22 22 20 20 18 21
3 3 4 4 4 4 5 6 8 10 11 10 9 11 12 12 11 14 15 16 18 21 24 24 21 19 19 18 18 19 21 21 22 22 20 20 20 20 21 21 21 19 22
5 5 5 5 5 6 7 9 10 9 9 10 12 14 12 14 16 18 20 22 23 26 28 26 25 20 19 18 18 18 18 19 18 19 20 20 20 19 19 19 19 20 21
3 4 6 7 7 7 6 6 7 8 10 6 8 11 12 13 15 16 22 27 28 27 26 17 19 19 17 17 17 17 17 16 17 17 18 19 20 21 21 21 21 22 22
4 4 6 6 7 7 7 7 7 8 8 7 8 11 12 13 15 19 24 27 18 18 17 18 18 18 20 22 20 19 18 20 21 20 19 18 18 20 21 21 22 22 21
4 3 5 7 7 9 9 7 7 7 7 9 10 9 13 18 22 24 25 19 17 18 18 20 23 24 21 24 18 19 20 21 19 20 22 22 22 21 24 25 23 24 22
6 6 8 10 11 11 10 9 8 9 13 15 13 13 14 19 23 22 20 18 18 16 18 21 22 23 25 23 19 19 21 19 18 19 21 22 21 19 23 24 21 22 20
10 11 12 14 15 14 16 14 14 16 16 16 16 18 25 29 22 20 21 20 19 22 21 23 24 26 24 23 23 21 23 23 19 17 19 21 22 22 22 22 22 22 22
12 14 16 18 19 20 17 18 17 18 19 17 18 19 24 22 21 21 20 21 23 23 24 27 27 24 20 19 20 23 26 28 26 24 21 19 20 20 22 22 24 25 22
21 22 22 21 19 18 20 17 20 22 24 24 20 20 20 23 24 22 24 22 22 25 26 25 23 20 20 21 21 22 23 23 25 28 29 27 26 24 23 21 20 20 19
24 22 24 26 24 19 21 22 21 22 23 19 17 18 20 21 23 27 23 22 23 25 25 23 19 17 15 14 12 13 15 16 18 21 24 27 28 26 28 28 28 27 25
19 19 21 18 15 16 19 18 19 22 17 17 16 18 20 22 27 27 23 21 22 22 22 21 18 17 16 16 16 16 16 17 19 20 22 22 24 25 28 29 28 28 29
20 19 18 16 13 13 16 16 19 14 16 15 17 19 22 25 26 25 22 20 21 20 20 19 17 17 17 17 18 19 21 21 22 22 23 22 22 23 24 24 24 26 30
Wind_Direction
216 225 228 229 231 233 235 237 242 248 250 252 255 266 257 259 267 266 268 269 275 280 283 285 284 281 264 270 272 274 281 286 283 291 299 305 300 307 309 303 299 299 298
219 227 232 235 234 232 235 240 247 250 253 255 255 256 256 260 257 261 265 266 269 271 272 276 288 282 271 274 292 292 278 265 275 284 280 297 300 298 296 299 294 294 296
224 234 238 232 229 230 233 233 236 238 243 248 254 252 249 253 258 256 256 258 266 275 278 281 283 263 265 275 285 288 270 259 270 277 287 286 286 289 289 290 288 284 292
208 214 212 203 214 213 209 214 225 226 228 241 259 269 267 261 269 274 280 284 282 281 281 279 279 281 280 280 287 283 282 287 289 285 278 281 282 282 283 285 289 288 290
168 132 101 87 75 50 350 257 227 226 305 342 343 329 321 305 293 286 281 281 279 281 281 280 280 280 279 281 278 276 283 289 291 288 284 280 280 285 283 291 293 284 281
160 149 133 132 65 330 308 303 280 225 225 309 323 295 277 275 272 273 279 278 281 281 276 276 278 278 276 278 276 275 277 283 283 279 277 280 284 283 291 294 288 286 276
157 153 208 152 217 219 220 223 242 232 235 242 305 282 280 275 272 274 275 275 276 276 277 279 279 277 279 279 279 283 283 282 281 282 281 281 283 290 286 289 286 281 278
149 150 158 159 228 228 214 207 209 241 238 269 289 288 283 284 280 278 278 279 277 277 279 278 278 280 280 278 279 280 283 288 289 285 278 281 284 291 293 288 283 278 270
128 119 116 113 142 203 201 212 231 251 253 264 278 284 288 283 279 278 279 281 279 278 277 276 277 280 282 284 284 286 285 282 284 281 277 283 287 290 291 286 280 271 267
117 112 100 115 145 157 161 197 229 252 260 263 271 278 283 282 280 281 282 279 279 278 275 274 274 277 281 279 283 287 289 287 282 278 282 284 288 293 292 283 276 264 266
106 101 110 109 134 132 203 247 262 269 273 275 276 276 272 274 277 282 284 283 279 277 276 276 273 272 271 274 275 277 282 286 281 276 276 279 281 291 310 297 279 265 261
118 107 86 25 345 328 320 305 295 291 292 287 281 279 279 279 281 281 277 278 281 284 284 284 283 282 281 269 265 270 273 274 275 274 276 276 272 274 283 300 301 289 277
79 2 327 323 315 307 301 292 291 292 289 290 291 294 296 297 297 293 286 282 282 282 287 288 290 289 287 288 274 265 266 270 271 269 273 274 272 274 276 282 287 289 290
339 315 316 311 305 301 303 303 301 302 301 298 301 303 308 315 317 315 311 305 298 294 292 291 291 292 288 282 280 278 272 269 272 271 270 274 275 274 276 275 277 280 284
332 352 8 2 345 343 339 330 310 302 297 295 304 309 311 314 316 323 322 322 318 311 305 301 296 291 285 282 278 277 277 274 271 272 271 274 274 275 273 270 267 268 273
67 57 41 32 21 8 356 345 346 347 328 296 288 294 300 309 314 314 314 317 314 307 305 299 288 281 280 279 279 279 277 276 273 271 269 268 269 266 266 267 263 259 262
61 43 35 26 16 9 349 335 337 331 349 351 315 312 300 303 306 307 305 306 306 299 295 283 280 281 275 274 276 274 273 276 277 278 273 268 265 261 260 262 264 268 264
79 50 29 10 1 350 337 330 321 327 330 323 310 306 300 308 313 314 311 313 314 301 301 288 280 281 286 291 291 285 290 282 272 269 270 272 266 263 260 259 262 262 263
28 9 1 353 345 338 335 329 326 323 323 328 338 329 314 315 318 320 320 317 307 297 293 296 301 299 294 295 288 290 294 295 289 283 272 268 271 270 266 264 260 258 255
340 326 329 331 329 328 317 309 308 313 325 324 318 310 313 315 318 315 313 305 308 296 299 304 305 302 302 296 285 282 289 293 292 287 284 276 273 272 270 263 258 261 255
307 314 315 318 323 318 318 315 308 312 309 308 309 312 316 320 314 311 310 309 302 307 304 307 300 293 294 292 288 285 282 284 289 300 290 281 282 274 271 265 257 257 259
309 309 308 313 316 322 317 315 315 315 314 311 317 321 322 326 318 313 308 305 311 310 311 315 310 299 297 291 286 280 286 284 288 290 282 282 283 277 272 268 263 260 260
302 298 297 296 301 312 313 313 314 315 317 322 325 327 328 326 322 317 316 312 313 316 316 319 320 312 299 292 293 291 292 288 283 285 286 277 270 272 269 267 264 263 258
304 299 297 295 290 289 304 314 315 318 323 326 325 329 332 332 329 328 321 316 315 313 319 321 322 321 322 318 314 309 307 305 300 296 290 279 274 270 267 266 267 261 265
308 305 303 303 292 285 296 307 315 320 324 323 326 331 330 326 336 339 327 322 322 321 321 327 328 324 320 315 314 314 312 311 307 303 299 290 279 273 268 268 265 257 255
311 304 297 302 288 285 310 304 314 322 327 324 326 330 332 337 342 341 337 329 329 327 326 326 328 332 328 326 325 320 317 313 308 300 298 294 286 277 273 272 271 265 257